Regional Weather Roundup
Issued by NWS Wakefield, VA

Home | Current Version | Previous Version | Graphics & Text | Print | Product List | Glossary On
Versions: 1 2 3 4 5 6 7 8 9 10 11 12 13 14 15 16 17 18 19 20 21 22 23 24 25 26 27 28 29 30 31 32 33 34 35 36 37 38 39 40 41 42 43 44 45 46 47 48 49 50
000
ASUS41 KAKQ 050710
RWRAKQ

REGIONAL WEATHER ROUNDUP
NATIONAL WEATHER SERVICE WAKEFIELD VA
200 AM EST THU MAR 05 2015

Note: "fair" indicates few or no clouds below 12,000 feet with no
significant weather and/or obstructions to visibility. * = Denotes
station may not report precipitation (e.g., rain,snow,etc.),
thunder or fog.

VAZ042-051-052>054-056-050800-
NORTHERN VIRGINIA

CITY           SKY/WX    TMP DP  RH WIND       PRES   REMARKS
WASH NATIONAL  LGT RAIN  43  38  82 NW8       30.00R FOG
DULLES         LGT RAIN  38  35  89 N12       29.98R
FORT BELVOIR   LGT RAIN  41  38  91 VRB5      30.00R
QUANTICO       LGT RAIN  41  38  89 NE10      30.00R
FREDERICKSBRG* DRIZZLE   44  44 100 N10       29.97S
STAFFORD*      RAIN      41  32  70 N10G16    30.02S
WARRENTON      DRIZZLE   41  41 100 NE6       29.97S
CULPEPER*      LGT RAIN  43  43 100 NE5       29.97F
MANASSAS*      CLOUDY    39  37  93 N8        29.99R
LEESBURG*      RAIN      37  37 100 N9        30.00S
WINCHESTER     LGT RAIN  37  32  81 NW7       29.99S
FRONT ROYAL*   CLOUDY    37  36  93 NE6       29.97F
LURAY*         LGT RAIN  41  41 100 NE9       29.95F
$$

VAZ048-049-060>072-079>083-050800-
CENTRAL AND SOUTH CENTRAL VIRGINIA

CITY           SKY/WX    TMP DP  RH WIND       PRES   REMARKS
RICHMOND       LGT RAIN  52  49  89 N12       29.92S FOG
CHESTERFIELD*  CLOUDY    54  43  66 CALM      29.93R
PETERSBURG*    LGT RAIN  54  53  95 NE5       29.92S
HANOVER        LGT RAIN  47  45  93 NE8G18    29.95R
TAPPAHANNOCK*  DRIZZLE   46  45  95 N8        29.96R
QUINTON*       CLOUDY    50  50  98 N9        29.93R
CHARLOTTSVILLE LGT RAIN  44  43  96 NE9       29.93F FOG
GORDONSVILLE*  CLOUDY    42  42  99 NE7       29.94S FOG
ORANGE*        HVY RAIN  43  43 100 N8        29.97S
LOUISA*        DRIZZLE   46  45  93 NE6       29.93S
BUMPASS*       CLOUDY    44  43  97 N6        29.95S
FARMVILLE*     HVY RAIN  51  51 100 CALM      29.93R VSB 1
CREWE*         CLOUDY    52  51  96 CALM      29.91F
FORT PICKETT*  CLOUDY    52  51  98 N6        29.92R
CHASE CITY*    CLOUDY    55  55 100 N3        29.89F
CLARKSVILLE*   CLOUDY    54  52  94 CALM      29.88F
SOUTH HILL*    CLOUDY    54  51  89 N6        29.95S
LAWRENCEVILLE* CLOUDY    54  52  92 CALM      29.89F
EMPORIA*       CLOUDY    52  52 100 N3        29.92S
$$

VAZ088>098-050800-
SOUTHEAST VIRGINIA

CITY           SKY/WX    TMP DP  RH WIND       PRES   REMARKS
NORFOLK        FOG       45  44  97 N3        29.90S VSB 1/4
VIRGINIA BEACH FOG       45  43  93 NW5       29.89S VSB 1/4
NORFOLK NAVAL  FOG       51  47  86 CALM      29.92R VSB 1/8
WEST POINT*    CLOUDY    53  51  93 N12G17    29.94R
SALUDA*        CLOUDY    45  45  99 N8        29.94R
NEWPORT NEWS   CLOUDY    53  50  89 NE3       29.90S FOG
LANGLEY AFB    CLOUDY    52  50  93 NE5       29.90R FOG
FORT EUSTIS    FOG       48 N/A N/A VRB3      29.89S VSB 1
WILLIAMSBURG*  MOCLDY    54  52  94 N5        29.92S
HR EXEC AP*    CLOUDY    48  46  93 CALM      29.92S VSB 1/4
FRANKLIN*      CLOUDY    51  51 100 CALM      29.90S FOG
WAKEFIELD      CLOUDY    52  50  93 CALM      29.90F FOG
$$

VAZ020-022-025-037-045-050800-
WEST CENTRAL AND SOUTHWEST VIRGINIA

CITY           SKY/WX    TMP DP  RH WIND       PRES   REMARKS
STAUNTON*      RAIN      43  42  96 N5        29.94F
WAYNESBORO*    CLOUDY    44  44 100 N5        29.91F
HOT SPRINGS VA LGT RAIN  36  36 100 W14       29.88S VSB<1/4
LYNCHBURG      LGT RAIN  47  46  97 CALM      29.92S FOG
DANVILLE       CLOUDY    53  50  89 NE7       29.89S
SOUTH BOSTON*  CLOUDY    53  51  90 NE3       29.89S
MARTINSVILLE   RAIN      52  52 100 CALM      29.93R
ROANOKE        LGT RAIN  46  43  89 N7        29.95R
BLACKSBURG     DRIZZLE   39  39  98 CALM      29.95F
DUBLIN*        RAIN      42  42 100 NW3       29.95S
MARION*        DRIZZLE   43  41  93 NW5       29.96F
HILLSVILLE*    RAIN      43  43  99 N6        29.92R
RICHLANDS*     RAIN      35  33  94 NW5       29.96F VSB 1
WISE*          MIX PCPN  32  32 100 N8        29.98F VSB 3/4
ABINGDON*      CLOUDY    42  41  97 NE3       29.94F
$$

MDZ021>025-VAZ099-100-050800-
SOUTHERN MARYLAND AND THE DELMARVA PENINSULA

CITY           SKY/WX    TMP DP  RH WIND       PRES   REMARKS
PATUXENT RIVER LGT RAIN  42  41  96 N9        29.96R FOG
BAY BRIDGE APT LGT RAIN  36  36 100 N3        30.00R
LEONARDTOWN    CLOUDY    43  41  93 CALM      29.99R
DOVER          LGT RAIN  39  39 100 NW10      29.96R
GEORGETOWN     LGT RAIN  42  41  96 N5        29.95R FOG
EASTON         LGT RAIN  42  42 100 N9        30.01R
CAMBRIDGE      CLOUDY    43  41  93 N7        29.97R
SALISBURY      LGT RAIN  46  43  89 N8        29.94R FOG
OCEAN CITY     LGT RAIN  42  42 100 N8        29.94R
WALLOPS ISLAND CLOUDY    47  47 100 N6        29.92R FOG
ACCOMACK*      FOG       45  43  93 N10G18    29.91R VSB 3/4
$$

NCZ012>017-030>032-050800-
NORTH CENTRAL AND EASTERN NORTH CAROLINA

CITY           SKY/WX    TMP DP  RH WIND       PRES   REMARKS
ROANOKE RAPIDS FOG       52  52 100 N3        29.90R VSB 1/4
RALEIGH        MOCLDY    66  58  75 SW16      29.88S
ELIZABETH CITY PTCLDY    61  58  90 S15       29.89R
AHOSKIE*       PTCLDY    58  56  94 CALM      29.90R FOG
EDENTON*       PTCLDY    60  58  91 SW8       29.90S
CURRITUCK*     PTCLDY    63  58  83 SW8G16    29.89S
KILL DEVIL HLS PTCLDY    60  58  96 S7        29.90S
MANTEO         PTCLDY    57  55  94 S12       29.92S
CAPE HATTERAS  FOG       57  57 100 SW12      29.97F VSB 1/2
TARBORO*       FAIR      65  60  85 S5        29.90R
GOLDSBORO      PTCLDY    65  65  99 SW8       29.89S
WASHINGTON     CLEAR     66  61  83 SW10G21   29.91F
GREENVILLE     CLEAR     64  63  94 SW16G22   29.92S
NEW BERN       CLEAR     67  63  87 SW16G22   29.95F
WILMINGTON     CLOUDY    69  66  90 SW18G26   29.98F
$$

VAZ048-050800-
ELSEWHERE

CITY           SKY/WX    TMP DP  RH WIND       PRES   REMARKS
HARRISBURG PA  LGT SNOW  34  32  92 NW8       29.98S
BALTIMORE      LGT RAIN  39  38  96 NW6       29.98R FOG
ANNAPOLIS      LGT RAIN  40  39  97 NW5       29.99R FOG
ANDREWS AFB    LGT RAIN  41  41 100 NW9       29.98R
PHILADELPHIA   LGT RAIN  39  36  89 NW6       29.97R
HENDERSON NC   LGT RAIN  55  52  90 N3        29.89S
GREENSBORO     CLOUDY    65  58  78 SW10      29.85F
ROCKY MOUNT    CLEAR     65  60  84 S10       29.88S
$$

VAZ100-050800-
MARINE

STATION/POSITION TIME  TEMP    WIND        PRES    WAVE   SWELL
                       AIR SEA DIR/SP/G            HT/PER HT/PER
                 (UTC) (F)     (DEG/KT/KT) (MB)    (FT/S) (FT/S)
BRANDYWINE LGT   0700           10/ 13/ 15 1014.0R
CAPE MAY NJ      0700   39 35  340/  7/ 11 1013.4R
LEWES DE         0700   35 32  340/  9/ 10 1014.0R
15NM E FENWICK I 0700   37 36              1012.9R   3/ 7
OCEAN-CITY-INLET 0700           10/  9/ 12 1013.1R
WACHAPREAGUE VA  0700   50 42  330/  2/  7 1012.7R
THOMAS POINT MD  0700   40 32  340/  7/  7 1016.7R
COVE POINT MD    0700   36     360/ 13/ 14 1014.2R
SOLOMONS ISLAND  0700      33                N/A
BISHOPS HEAD MD  0700   41 35  360/  6/  9 1013.6R
CAMBRIDGE MD     0700   41 32   10/  7/  8 1014.1R
LEWISETTA VA     0700      34     CALM     1013.6F
RAPPAHANNOCK LGT 0700          340/ 16/ 17 1013.6R
STINGRAY PT      0700   40      10/ 10/ 14   N/A
YORK RVR RNG VA  0700   46     360/  9/  9 1012.4R
YORKTOWN VA      0700   44 35  310/  6/ 10 1012.7R
DOMINION TERM VA 0700   44     360/  1/  3 1012.4R
KIPTOPEKE VA     0700      39  280/  3/  5   N/A
CHES BAY BRIDGE  0700   41 35  270/  2/  3 1012.2R
CAPE HENRY VA    0700   42     250/  3/  5 1011.2F
CHESAPEAKE LGHT  0600   41     320/  9/  9 1012.7R
WILLOUBY STN VA  0700   47        CALM     1012.9R
S CRANEY ISL VA  0700           80/  1/  2 1012.4R
CAPE HENRY BUOY  0700      36                N/A     3/ 7
1ST LANDING BUOY 0700   38     260/  4/  6 1012.2F
OFFSHORE WE BUOY 0700      37                N/A     5/ 8   5/ 8
64NM E OF VA BCH 0700   55 51  210/ 21/ 25 1011.6S   7/ 7   2/12
DUCK PIER NC     0700   60 36  200/ 17/ 21 1011.3R
44100 DUCK FRF   0700      38                N/A     4/ 6
44056 DUCK FRF   0700      36                N/A     3/ 9   2/11
OREGON INLET NC  0700   50 50  200/ 15/ 17 1013.6F
HATTERAS NC      0700   56 48  220/  9/ 14 1015.2S
CAPE LOOKOUT NC  0600   59     220/ 11/ 16 1015.5F
$$


USA.gov is the U.S. government's official web portal to all federal, state and local government web resources and services.